This demonstration page uses our WeatherBlox Daily Observations layout. Learn more.

Left ArrowRight Arrow

Hourly Observations for July 6, 2017

Temp ( °F °C ) Dew Point ( °F °C ) Humidity (%) Winds ( mph kmh ) Pressure ( in mb ) Visibility ( mi km ) Precip ( " mm )
12:53 am 00:53 Clear 71 21.7 61 16.1 71 71 S 6 9 30.06 1018 10 16 0.00 0.00
1:53 am 01:53 Clear 71 21.7 60 15.6 68 68 S 7 11 30.06 1018 10 16 0.00 0.00
2:53 am 02:53 Clear 71 21.7 59 15 66 66 S 6 9 30.09 1019 10 16 0.00 0.00
3:53 am 03:53 Clear 72 22.2 61 16.1 68 68 NNE 8 13 30.17 1022 10 16 0.00 0.00
4:53 am 04:53 Clear 72 22.2 60 15.6 66 66 S 7 11 30.05 1018 10 16 0.00 0.00
5:53 am 05:53 Clear 68 20 61 16.1 78 78 SW 3 6 30.07 1018 10 16 0.00 0.00
6:53 am 06:53 Sunny 67 19.4 61 16.1 81 81 SW 3 6 30.06 1018 10 16 0.00 0.00
7:53 am 07:53 Sunny 72 22.2 61 16.1 68 68 SSW 9 15 30.04 1017 10 16 0.00 0.00
8:53 am 08:53 Sunny 76 24.4 64 17.8 67 67 SW 9 15 30.05 1018 10 16 0.00 0.00
9:53 am 09:53 Sunny 82 27.8 66 18.9 58 58 SW 8 13 30.04 1017 10 16 0.00 0.00
10:53 am 10:53 Sunny 86 30 67 19.4 53 53 WSW 13 20 30.02 1017 10 16 0.00 0.00
11:53 am 11:53 Sunny 88 31.1 68 20 52 52 SSW 10 17 30.02 1017 10 16 0.00 0.00
12:53 pm 12:53 Sunny 91 32.8 67 19.4 45 45 SSW 12 19 30.02 1017 10 16 0.00 0.00
1:53 pm 13:53 Sunny 94 34.4 64 17.8 37 37 WSW 10 17 30.01 1016 10 16 0.00 0.00
2:53 pm 14:53 Sunny 96 35.6 59 15 29 29 SW 7 11 29.99 1016 10 16 0.00 0.00
3:53 pm 15:53 Sunny 96 35.6 63 17.2 34 34 SW 10 17 29.97 1015 10 16 0.00 0.00
4:53 pm 16:53 Sunny 96 35.6 64 17.8 35 35 SW 8 13 29.96 1015 10 16 0.00 0.00
5:53 pm 17:53 Sunny 96 35.6 65 18.3 36 36 SW 9 15 29.95 1014 10 16 0.00 0.00
6:53 pm 18:53 Sunny 95 35 66 18.9 39 39 SSW 5 7 29.95 1014 10 16 0.00 0.00
7:53 pm 19:53 Sunny 93 33.9 68 20 44 44 W 3 6 29.96 1015 10 16 0.00 0.00
8:53 pm 20:53 Sunny 85 29.4 67 19.4 55 55 ENE 5 7 29.98 1015 10 16 0.00 0.00
9:53 pm 21:53 Clear 82 27.8 69 20.6 65 65 NE 5 7 29.99 1016 7 11 0.00 0.00
10:53 pm 22:53 Clear 80 26.7 66 18.9 62 62 NE 3 6 30.00 1016 10 16 0.00 0.00
11:53 pm 23:53 Clear 77 25 66 18.9 69 69 NNE 8 13 29.99 1016 10 16 0.00 0.00

Powered by AerisWeather